Starlink 30999

operational
NORAD ID: 58551 Int'l Des: 2023-192 Owner: SPXS Country: US Constellation: starlink
LEOCIRCULAR

关于 Starlink 30999

正在加载描述...

实时位置

正在加载3D地球...

即将过境

高度历史

Altitude vs Time

uPlot chart will show altitude changes over time

两行轨道根数

1 58551U 23192W 25353.61115352 -.00000908 00000-0 -18537-4 0 9990
2 58551 53.1611 64.7363 0001237 63.7683 296.3445 15.30202119113864
Epoch: Dec 19, 2025 • Age: 14 hours

当前状态

高度 478.8 km
速度 7.63 km/s
星下点 -13.95°S, 108.16°W
发射日期 Dec 8, 2023
运行时间 2 years
类型 internet

技术详情

分类 Payload
质量 730.00 kg
干质量 700.00 kg
总质量 730.00 kg
长度 0.30 m
直径 4.10 m
跨度 29.00 m
形状 Box + pan
制造商 SPXS
平台类型 Starlink V2M
阶段状态 In Orbit
所有者/国家 SPXS/US

大型星座

Loading constellations...